EHI
0 0 0 0 0 0 0 0 0 0 0 0 0 0 0 0 0 0 0 0 0 0 0 0 0 0 0 0 0 0 0 0 0 0 0 0 0 0 0 0 0 0 0
0 0 0 0 0 0 0 0 0 0 0 0 0 0 0 0 0 0 0 0 0 0 0 0 0 0 0 0 0 0 0 0 0 0 0 0 0 0 0 0 0 0 0
0 0 0 0 0 0 0 0 0 0 0 0 0 0 0 0 0 0 0 0 0 0 0 0 0 0 0 0 0 0 0 0 0 0 0 0 0 0 0 0 0 0 0
0 0 0 0 0 0 0 0 0 0 0 0 0 0 0 0 0 0 0 0 0 0 0 0 0 0 0 0 0 0 0 0 0 0 0 0 0 0 0 0 0 0 0
0 0 0 0 0 0 0 0 0 0 0 0 0 0 0 0 0 0 0 0 0 0 0 0 0 0 0 0 0 0 0 0 0 0 0 0 0 0 0 0 0 0 0
0 0 0 0 0 0 0 0 0 0 0 0 0 0 0 0 0 0 0 0 0 0 0 0 0 0 0 0 0 0 0 0 0 0 0 0 0 0 0 0 0 0 0
0 0 0 0 0 0 0 0 0 0 0 0 0 0 0 0 0 0 0 0 0 0 0 0 0 0 0 0 0 0 0 0 0 0 0 0 0 0 0 0 0 0 0
0 0 0 0 0 0 0 0 0 0 0 0 0 0 0 0 0 0 0 0 0 0 0 0 0 0 0 0 0 0 0 0 0 0 0 0 0 0 0 0 0 0 0
0 0 0 0 0 0 0 0 0 0 0 0 0 0 0 0 0 0 0 0 0 0 0 0 0 0 0 0 0 0 0 0 0 0 0 0 0 0 0 0 0 0 0
0 0 0 0 0 0 0 0 0 0 0 0 0 0 0 0 0 0 0 0 0 0 0 0 0 0 0 0 0 0 0 0 0 0 0 0 0 0 0 0 0 0 0
0 0 0 0 0 0 0 0 0 0 0 0 0 0 0 0 0 0 0 0 0 0 0 0 0 0 0 0 0 0 0 0 0 0 0 0 0 0 0 0 0 0 0
0 0 0 0 0 0 0 0 0 0 0 0 0 0 0 0 0 0 0 0 0 0 0 0 0 0 0 0 0 0 0 0 0 0 0 0 0 0 0 0 0 0 0
0 0 0 0 0 0 0 0 0 0 0 0 0 0 0 0 0 0 0 0 0 0 0 0 0 0 0 0 0 0 0 0 0 0 0 0 0 0 0 0 0 0 0
0 0 0 0 0 0 0 0 0 0 0 0 0 0 0 0 0 0 0 0 0 0 0 0 0 0 0 0 0 0 0 0 0 0 0 0 0 0 0 0 0 0 0
0 0 0 0 0 0 0 0 0 0 0 0 0 0 0 0 0 0 0 0 0 0 0 0 0 0 0 0 0 0 0 0 0 0 0 0 0 0 0 0 0 0 0
0 0 0 0 0 0 0 0 0 0 0 0 0 0 0 0 0 0 0 0 0 0 0 0 0 0 0 0 0 0 0 0 0 0 0 0 0 0 0 0 0 0 0
0 0 0 0 0 0 0 0 0 0 0 0 0 0 0 0 0 0 0 0 0 0 0 0 0 0 0 0 0 0 0 0 0 0 0 0 0 0 0 0 0 0 0
0 0 0 0 0 0 0 0 0 0 0 0 0 0 0 0 0 0 0 0 0 0 0 0 0 0 0 0 0 0 0 0 0 0 0 0 0 0 0 0 0 0 0
0 0 0 0 0 0 0 0 0 0 0 0 0 0 0 0 0 0 0 0 0 0 0 0 0 0 0 0 0 0 0 0 0 0 0 0 0 0 0 0 0 0 0
0 0 0 0 0 0 0 0 0 0 0 0 0 0 0 0 0 0 0 0 0 0 0 0 0 0 0 0 0 0 0 0 0 0 0 0 0 0 0 0 0 0 0
0 0 0 0 0 0 0 0 0 0 0 0 0 0 0 0 0 0 0 0 0 0 0 0 0 0 0 0 0 0 0 0 0 0 0 0 0 0 0 0 0 0 0
0 0 0 0 0 0 0 0 0 0 0 0 0 0 0 0 0 0 0 0 0 0 0 0 0 0 0 0 0 0 0 0 0 0 0 0 0 0 0 0 0 0 0
0 0 0 0 0 0 0 0 0 0 0 0 0 0 0 0 0 0 0 0 0 0 0 0 0 0 0 0 0 0 0 0 0 0 0 0 0 0 0 0 0 0 0
0 0 0 0 0 0 0 0 0 0 0 0 0 0 0 0 0 0 0 0 0 0 0 0 0 0 0 0 0 0 0 0 0 0 0 0 0 0 0 0 0 0 0
0 0 0 0 0 0 0 0 0 0 0 0 0 0 0 0 0 0 0 0 0 0 0 0 0 0 0 0 0 0 0 0 0 0 0 0 0 0 0 0 0 0 0
0 0 0 0 0 0 0 0 0 0 0 0 0 0 0 0 0 0 0 0 0 0 0 0 0 0 0 0 0 0 0 0 0 0 0 0 0 0 0 0 0 0 0
Wind_Speed
3 2 2 2 1 1 1 1 1 1 0 1 1 1 1 1 1 1 2 1 2 2 2 2 3 2 2 2 2 2 2 2 4 2 1 1 1 1 2 2 2 2 2
3 2 2 2 2 2 2 2 1 1 1 1 1 1 1 1 1 1 2 2 2 2 2 2 3 2 3 2 2 2 2 2 3 4 2 1 2 2 2 2 2 2 2
3 2 2 2 2 2 2 2 2 1 1 1 1 1 1 1 1 1 1 1 1 2 2 2 2 2 2 2 2 2 2 2 2 2 2 1 1 1 1 2 2 2 2
3 2 3 3 2 2 2 2 1 1 1 1 1 1 1 1 1 1 1 1 1 1 1 2 2 2 3 3 3 3 2 1 1 1 2 2 1 1 0 1 2 2 2
2 2 2 3 3 2 2 2 1 1 1 1 1 1 1 1 1 1 1 1 0 1 1 1 2 2 3 2 2 2 2 2 2 2 2 2 1 1 2 1 2 2 3
2 2 2 3 3 2 2 2 2 2 2 2 2 2 2 2 3 2 2 1 1 1 1 1 2 1 3 3 2 2 3 3 3 3 3 3 3 2 2 2 2 2 3
2 2 3 2 2 2 2 3 2 2 2 2 2 2 2 2 3 3 3 1 1 1 1 1 2 2 2 2 2 1 1 2 3 3 4 4 3 3 2 2 2 3 4
2 2 3 3 2 3 2 2 2 2 2 1 1 1 1 3 4 4 3 2 1 1 2 2 2 2 2 2 1 1 1 1 1 2 3 3 2 2 2 3 3 3 2
2 2 2 2 2 2 2 2 2 2 1 1 1 1 1 3 4 4 3 1 1 2 2 2 2 2 4 3 1 1 1 1 2 2 2 2 2 2 1 0 0 1 2
3 3 3 2 2 2 2 2 1 1 1 1 1 1 1 2 4 4 3 1 1 2 2 2 3 4 4 3 1 1 1 2 1 2 2 2 1 1 1 1 1 2 2
3 3 3 2 2 2 2 1 1 1 1 1 1 1 1 2 3 5 4 1 1 1 1 2 2 5 4 4 2 1 2 2 1 1 1 1 1 1 1 1 1 2 2
2 2 2 2 2 1 1 1 1 1 0 1 1 2 2 2 2 3 4 3 2 1 1 2 2 4 4 4 3 3 4 2 0 0 1 1 1 1 1 1 1 1 2
2 2 2 2 2 1 1 0 0 0 0 0 1 1 2 2 2 4 4 5 4 2 1 3 3 4 3 3 4 5 3 1 1 0 1 2 1 1 1 1 1 1 2
2 2 2 2 2 1 1 1 1 1 1 1 1 1 2 2 2 2 2 2 3 2 2 2 3 3 3 3 3 3 2 2 1 1 1 1 1 1 1 1 1 2 2
2 2 2 1 1 1 1 1 1 2 2 2 2 1 2 2 3 4 3 2 1 1 1 1 1 1 2 2 2 2 2 2 2 1 1 1 2 2 2 1 1 1 1
2 2 1 1 1 1 1 2 3 3 4 4 4 3 3 4 5 5 5 4 2 1 1 0 0 0 1 1 2 2 2 2 2 2 2 2 2 2 2 2 1 1 2
3 2 2 1 1 1 1 1 2 3 3 3 4 4 4 5 5 5 4 3 2 1 1 1 1 1 1 1 2 2 2 2 2 2 2 2 2 2 2 2 2 2 3
2 2 2 2 2 2 2 2 2 2 2 2 3 4 5 5 5 4 3 1 1 1 0 1 2 2 2 2 2 2 2 2 2 2 2 2 2 2 3 3 2 3 3
2 2 2 2 2 2 2 2 2 2 2 2 2 3 3 4 4 3 2 0 1 1 1 2 2 2 2 2 2 2 3 3 2 2 2 3 3 2 3 3 3 4 3
2 3 2 2 2 2 2 2 2 2 2 2 3 3 1 0 1 2 1 1 2 2 2 2 2 2 2 2 2 2 2 3 3 3 3 3 3 3 3 4 3 3 3
2 2 3 2 2 3 2 3 3 3 3 3 3 4 4 2 2 3 2 2 3 3 3 3 2 2 2 2 2 3 3 3 3 3 3 3 3 3 3 3 3 3 3
2 2 3 3 3 3 3 3 3 3 3 4 3 3 5 2 2 3 3 3 3 3 3 3 3 3 3 3 3 3 3 4 3 3 3 3 3 3 3 3 3 3 3
3 3 3 3 3 3 3 3 3 4 4 4 3 3 3 3 3 4 4 4 3 3 3 3 3 3 3 3 3 4 4 5 4 4 4 4 4 3 3 4 4 4 4
3 3 3 3 3 3 3 3 4 4 4 4 4 4 4 4 4 4 4 4 3 3 3 3 4 5 6 5 4 4 5 5 5 4 6 5 5 4 4 4 4 5 4
3 3 3 3 3 4 4 4 4 4 4 4 4 4 4 4 4 4 4 4 4 4 5 4 4 5 6 7 7 6 7 9 8 5 5 5 5 5 5 5 5 4 4
3 3 3 3 3 4 4 4 4 4 4 4 4 4 4 4 5 5 4 4 4 5 5 5 6 7 7 7 8 9 9 10 9 8 5 4 5 5 5 5 5 4 5
Wind_Direction
11 14 19 11 9 21 17 355 344 348 315 277 251 239 248 259 268 255 257 257 242 248 238 228 241 222 207 211 207 203 208 209 238 260 236 263 251 271 299 300 296 290 288
359 17 26 18 19 25 9 3 11 6 2 355 338 288 288 300 288 258 259 253 241 244 244 229 237 233 215 209 208 212 213 214 214 248 270 259 260 253 270 286 307 312 296
6 13 20 21 22 13 360 5 10 11 10 19 24 355 338 326 305 285 274 288 272 260 257 244 238 227 230 217 213 216 220 228 224 230 260 276 271 281 304 307 311 310 308
14 18 14 3 357 351 360 6 7 17 14 15 13 354 348 353 347 332 322 308 320 319 296 281 260 239 244 223 214 217 210 213 214 226 249 263 264 280 281 295 308 305 301
17 12 356 350 351 359 10 6 18 30 27 21 26 17 5 358 356 357 336 283 279 313 312 307 309 295 288 255 225 215 204 209 215 223 241 251 254 249 258 260 277 300 294
8 355 350 355 359 4 5 10 23 27 31 36 36 32 17 355 6 18 29 18 341 302 304 324 322 311 311 288 269 238 218 214 219 226 241 245 249 245 263 264 281 306 291
5 357 352 352 355 358 2 15 16 11 25 37 38 35 11 348 9 19 29 38 18 350 329 331 334 331 313 294 287 277 253 255 235 230 242 250 250 240 236 257 257 263 267
5 357 350 347 348 355 4 6 359 359 8 13 20 16 2 352 8 19 29 32 26 6 352 344 324 322 325 335 311 307 291 271 271 246 245 261 262 256 234 241 242 266 280
337 334 336 338 341 345 346 344 343 349 359 346 9 12 8 349 2 17 29 26 19 357 353 356 339 335 333 356 18 322 317 308 319 302 281 276 282 284 270 151 172 255 274
318 321 326 328 329 323 317 324 335 339 334 330 1 8 5 350 359 10 21 24 3 340 338 339 331 337 341 358 11 327 292 302 331 334 333 332 320 323 326 194 199 229 262
326 334 337 335 325 318 324 332 348 2 358 344 355 354 352 342 349 0 5 13 327 312 316 322 321 333 337 342 342 310 292 306 300 294 297 311 335 349 331 308 254 224 239
332 333 329 327 320 325 328 342 4 13 354 340 351 347 346 339 344 345 349 353 352 293 297 310 318 334 342 346 347 345 340 339 355 331 320 316 320 318 311 303 296 284 273
327 320 317 319 322 331 320 324 344 314 275 317 327 322 329 331 329 338 337 341 343 333 314 325 333 344 353 357 353 354 354 1 43 359 298 298 304 300 315 325 326 314 308
297 306 310 316 326 333 313 276 245 238 233 254 281 298 310 311 313 315 312 325 335 338 338 332 336 351 12 13 2 359 358 353 335 297 303 305 319 325 317 318 307 313 314
275 287 293 296 295 303 302 275 264 246 226 233 238 242 263 289 295 303 307 296 285 292 0 10 24 19 13 5 359 353 354 356 341 321 306 308 304 299 298 303 287 282 274
255 270 267 267 278 284 296 314 302 285 276 273 270 269 269 281 299 304 306 308 314 346 88 109 329 323 306 310 318 326 327 323 312 303 287 276 279 283 289 294 282 258 269
229 246 247 242 239 244 254 267 296 318 316 310 305 299 297 293 299 306 308 311 331 60 118 221 248 268 281 287 288 287 290 297 301 297 287 279 275 274 275 278 276 269 270
235 241 228 227 230 232 237 244 247 262 292 304 312 309 311 303 305 308 306 328 349 12 230 237 247 251 258 267 272 275 281 292 292 289 290 286 272 268 271 269 265 264 269
232 237 224 223 226 229 234 237 236 239 250 272 298 302 312 313 316 321 337 341 232 253 252 246 245 247 254 259 264 268 270 274 277 277 276 277 272 267 267 265 264 266 265
237 241 227 218 223 224 224 225 230 233 239 249 257 267 283 301 273 292 294 243 239 248 248 247 248 245 246 250 254 259 266 269 271 270 272 274 274 262 262 267 263 262 262
229 233 222 216 221 223 223 225 227 230 236 244 251 254 254 231 238 245 243 239 237 243 247 246 248 249 248 248 247 250 255 263 263 264 269 272 272 272 265 264 267 266 266
221 223 214 214 221 223 226 227 227 232 239 248 257 265 275 269 250 247 247 249 244 239 234 234 244 246 244 242 242 246 252 257 259 259 263 267 266 268 268 263 263 266 269
222 224 227 224 222 223 227 226 226 231 238 243 250 253 250 245 247 249 252 255 254 252 243 231 240 250 246 242 238 235 244 251 251 248 252 257 259 260 261 262 259 262 262
227 231 235 236 230 226 229 232 231 234 237 241 243 245 247 247 248 251 251 252 252 252 246 238 240 247 251 250 247 242 244 249 248 244 239 242 247 251 253 258 256 255 260
229 234 239 240 238 237 237 238 238 238 239 242 243 246 248 249 251 252 251 250 251 253 252 246 245 247 250 251 251 251 256 260 255 245 238 236 240 242 245 250 249 251 253
236 238 241 242 242 241 241 243 244 243 244 245 244 245 246 249 252 253 251 251 253 255 256 252 249 250 253 255 256 257 258 260 254 245 236 234 236 240 240 247 244 244 247